Precipitable_Water
1.31 1.32 1.34 1.35 1.36 1.35 1.36 1.34 1.31 1.29 1.27 1.28 1.26 1.27 1.32 1.32 1.30 1.28 1.23 1.15 1.12 1.11 1.07 1.03 0.98 0.91 0.85 0.82 0.80 0.80 0.78 0.74 0.70 0.64 0.60 0.58 0.56 0.51 0.48 0.44 0.41 0.40 0.39 0.37 0.35 0.35 0.34 0.34 0.36 0.38 0.39 0.36 0.35 0.33 0.32 0.31 0.30 0.26 0.26 0.26 0.22 0.25 0.24 0.23 0.21 0.21 0.25 0.30 0.30 0.30 0.32 0.30 0.27 0.29 0.26 0.25 0.25 0.25 0.25 0.25 0.26 0.27 0.29 0.32 0.34
1.28 1.31 1.35 1.36 1.35 1.35 1.34 1.30 1.27 1.25 1.25 1.28 1.26 1.27 1.28 1.27 1.25 1.21 1.12 1.07 1.08 1.07 1.04 0.99 0.93 0.88 0.82 0.81 0.81 0.80 0.75 0.70 0.67 0.64 0.60 0.56 0.54 0.52 0.47 0.42 0.40 0.39 0.40 0.37 0.36 0.36 0.37 0.36 0.37 0.38 0.38 0.36 0.36 0.35 0.33 0.30 0.29 0.28 0.25 0.25 0.23 0.23 0.27 0.25 0.24 0.23 0.20 0.26 0.28 0.31 0.30 0.30 0.27 0.28 0.26 0.25 0.24 0.23 0.23 0.24 0.25 0.27 0.30 0.32 0.33
1.30 1.32 1.33 1.33 1.33 1.33 1.30 1.24 1.22 1.23 1.25 1.25 1.24 1.25 1.25 1.22 1.22 1.13 1.03 1.03 1.07 1.05 1.02 0.96 0.90 0.86 0.84 0.83 0.80 0.76 0.72 0.69 0.66 0.63 0.59 0.56 0.53 0.50 0.47 0.43 0.42 0.41 0.38 0.35 0.35 0.37 0.38 0.38 0.38 0.40 0.39 0.35 0.33 0.34 0.34 0.30 0.29 0.29 0.28 0.26 0.25 0.23 0.27 0.29 0.27 0.23 0.23 0.24 0.28 0.28 0.28 0.28 0.28 0.25 0.26 0.26 0.24 0.23 0.23 0.23 0.25 0.27 0.30 0.32 0.33
1.29 1.29 1.29 1.29 1.31 1.29 1.24 1.21 1.20 1.23 1.22 1.22 1.23 1.23 1.21 1.19 1.16 1.06 1.04 1.05 1.04 1.04 1.00 0.94 0.89 0.88 0.85 0.81 0.77 0.73 0.70 0.68 0.66 0.63 0.59 0.57 0.53 0.50 0.48 0.45 0.43 0.42 0.39 0.36 0.37 0.40 0.40 0.39 0.38 0.39 0.38 0.36 0.34 0.33 0.34 0.34 0.28 0.26 0.28 0.27 0.26 0.22 0.28 0.30 0.29 0.26 0.25 0.23 0.26 0.28 0.28 0.27 0.26 0.26 0.26 0.26 0.24 0.22 0.22 0.24 0.26 0.28 0.29 0.31 0.33
1.26 1.26 1.26 1.25 1.26 1.23 1.19 1.18 1.18 1.19 1.20 1.22 1.23 1.22 1.18 1.15 1.11 1.06 1.05 1.03 1.03 1.01 0.97 0.92 0.88 0.85 0.81 0.78 0.74 0.71 0.68 0.67 0.63 0.61 0.60 0.57 0.54 0.50 0.47 0.46 0.45 0.44 0.42 0.41 0.41 0.42 0.42 0.41 0.40 0.41 0.39 0.36 0.36 0.35 0.35 0.32 0.28 0.25 0.25 0.25 0.25 0.25 0.28 0.29 0.29 0.28 0.25 0.24 0.25 0.29 0.28 0.27 0.26 0.25 0.25 0.23 0.23 0.22 0.22 0.23 0.25 0.28 0.29 0.31 0.33
1.24 1.23 1.24 1.23 1.21 1.18 1.15 1.16 1.18 1.18 1.18 1.19 1.20 1.19 1.14 1.11 1.08 1.05 1.04 1.02 1.02 1.00 0.93 0.90 0.87 0.83 0.79 0.76 0.73 0.70 0.67 0.64 0.62 0.61 0.58 0.57 0.53 0.51 0.50 0.49 0.49 0.48 0.46 0.44 0.45 0.46 0.45 0.43 0.42 0.41 0.38 0.35 0.34 0.33 0.33 0.31 0.28 0.24 0.23 0.24 0.25 0.26 0.27 0.27 0.27 0.26 0.26 0.25 0.27 0.25 0.25 0.25 0.23 0.22 0.24 0.23 0.21 0.20 0.21 0.23 0.25 0.28 0.30 0.30 0.32
1.22 1.20 1.22 1.19 1.17 1.14 1.12 1.15 1.19 1.19 1.17 1.17 1.17 1.16 1.12 1.09 1.06 1.03 1.03 1.01 1.00 0.96 0.90 0.88 0.87 0.81 0.76 0.74 0.71 0.68 0.65 0.63 0.62 0.60 0.58 0.56 0.53 0.52 0.52 0.52 0.51 0.49 0.47 0.48 0.48 0.48 0.48 0.46 0.43 0.40 0.36 0.32 0.29 0.28 0.29 0.29 0.27 0.23 0.23 0.23 0.25 0.25 0.25 0.25 0.25 0.25 0.24 0.24 0.27 0.25 0.24 0.25 0.23 0.20 0.22 0.23 0.21 0.20 0.20 0.21 0.22 0.26 0.29 0.31 0.31
1.20 1.20 1.19 1.18 1.15 1.11 1.11 1.16 1.20 1.18 1.16 1.15 1.15 1.15 1.12 1.09 1.06 1.03 1.03 1.01 0.98 0.91 0.87 0.87 0.85 0.78 0.74 0.72 0.70 0.68 0.66 0.64 0.62 0.60 0.59 0.57 0.56 0.54 0.53 0.52 0.51 0.50 0.49 0.49 0.49 0.49 0.49 0.44 0.39 0.35 0.32 0.29 0.25 0.25 0.26 0.26 0.26 0.22 0.22 0.22 0.23 0.23 0.23 0.24 0.23 0.22 0.22 0.23 0.25 0.23 0.24 0.22 0.22 0.22 0.23 0.21 0.19 0.19 0.21 0.22 0.21 0.23 0.25 0.29 0.33
1.18 1.19 1.19 1.17 1.13 1.11 1.11 1.15 1.19 1.17 1.12 1.11 1.12 1.11 1.09 1.07 1.05 1.03 1.02 1.00 0.95 0.89 0.85 0.85 0.79 0.74 0.73 0.71 0.69 0.68 0.66 0.65 0.64 0.63 0.61 0.60 0.57 0.55 0.55 0.55 0.53 0.50 0.49 0.49 0.50 0.51 0.48 0.40 0.34 0.29 0.24 0.20 0.19 0.18 0.18 0.21 0.23 0.20 0.19 0.20 0.21 0.21 0.21 0.21 0.21 0.20 0.20 0.22 0.23 0.24 0.23 0.21 0.20 0.20 0.19 0.18 0.18 0.18 0.22 0.24 0.23 0.25 0.27 0.28 0.31
1.18 1.18 1.17 1.15 1.13 1.10 1.10 1.13 1.16 1.16 1.10 1.07 1.07 1.07 1.06 1.05 1.04 1.02 1.00 0.98 0.93 0.88 0.83 0.81 0.75 0.73 0.72 0.70 0.69 0.67 0.65 0.66 0.65 0.64 0.62 0.59 0.58 0.59 0.59 0.58 0.55 0.52 0.49 0.50 0.53 0.55 0.47 0.37 0.29 0.24 0.24 0.24 0.21 0.19 0.17 0.18 0.19 0.20 0.19 0.20 0.19 0.19 0.19 0.19 0.18 0.19 0.19 0.20 0.22 0.23 0.20 0.20 0.20 0.20 0.20 0.19 0.21 0.22 0.22 0.23 0.21 0.24 0.26 0.27 0.29
1.19 1.19 1.17 1.17 1.14 1.11 1.09 1.12 1.15 1.12 1.09 1.07 1.06 1.06 1.05 1.04 1.02 1.01 0.99 0.96 0.92 0.86 0.82 0.78 0.74 0.74 0.72 0.70 0.68 0.66 0.67 0.65 0.61 0.62 0.60 0.60 0.61 0.61 0.61 0.59 0.57 0.53 0.53 0.55 0.56 0.50 0.42 0.32 0.26 0.27 0.28 0.29 0.27 0.24 0.21 0.22 0.23 0.23 0.23 0.22 0.24 0.23 0.20 0.18 0.17 0.18 0.18 0.19 0.22 0.23 0.21 0.19 0.20 0.21 0.21 0.21 0.22 0.22 0.22 0.23 0.22 0.23 0.24 0.24 0.23
1.21 1.20 1.20 1.19 1.15 1.10 1.09 1.11 1.12 1.12 1.12 1.10 1.10 1.08 1.05 1.03 1.03 1.02 0.98 0.94 0.91 0.88 0.84 0.80 0.78 0.76 0.73 0.71 0.68 0.66 0.66 0.63 0.61 0.62 0.61 0.62 0.62 0.62 0.63 0.59 0.59 0.57 0.57 0.57 0.53 0.46 0.36 0.28 0.30 0.32 0.31 0.34 0.33 0.30 0.28 0.26 0.27 0.26 0.25 0.25 0.25 0.27 0.24 0.21 0.18 0.18 0.18 0.18 0.19 0.21 0.21 0.20 0.20 0.22 0.22 0.22 0.22 0.22 0.23 0.23 0.23 0.23 0.24 0.25 0.25
1.22 1.20 1.20 1.18 1.13 1.10 1.10 1.10 1.11 1.12 1.13 1.12 1.10 1.07 1.05 1.06 1.05 1.01 0.97 0.96 0.93 0.90 0.87 0.83 0.80 0.77 0.74 0.72 0.69 0.69 0.66 0.64 0.62 0.61 0.60 0.60 0.62 0.61 0.59 0.59 0.58 0.57 0.59 0.56 0.52 0.46 0.39 0.35 0.35 0.30 0.29 0.32 0.34 0.35 0.33 0.32 0.31 0.30 0.29 0.28 0.29 0.29 0.28 0.25 0.23 0.22 0.21 0.20 0.19 0.20 0.22 0.22 0.22 0.22 0.25 0.25 0.26 0.23 0.23 0.23 0.24 0.25 0.26 0.26 0.27
1.22 1.21 1.19 1.15 1.12 1.10 1.10 1.09 1.09 1.12 1.12 1.11 1.08 1.08 1.09 1.07 1.06 1.04 1.01 0.97 0.94 0.91 0.88 0.84 0.82 0.78 0.76 0.74 0.72 0.72 0.67 0.63 0.60 0.59 0.58 0.58 0.60 0.58 0.59 0.58 0.59 0.60 0.58 0.55 0.51 0.45 0.39 0.37 0.33 0.33 0.31 0.28 0.30 0.31 0.31 0.32 0.35 0.35 0.33 0.31 0.32 0.32 0.31 0.28 0.25 0.24 0.24 0.23 0.23 0.22 0.25 0.27 0.25 0.26 0.28 0.29 0.27 0.25 0.24 0.24 0.26 0.26 0.27 0.27 0.29
1.20 1.19 1.16 1.13 1.10 1.08 1.06 1.06 1.08 1.09 1.10 1.10 1.10 1.10 1.09 1.08 1.06 1.03 1.00 0.96 0.94 0.92 0.89 0.86 0.84 0.81 0.79 0.77 0.77 0.74 0.67 0.62 0.60 0.59 0.57 0.57 0.57 0.58 0.59 0.57 0.61 0.62 0.58 0.54 0.50 0.44 0.41 0.38 0.37 0.38 0.36 0.31 0.26 0.23 0.27 0.30 0.33 0.35 0.34 0.34 0.35 0.36 0.36 0.32 0.28 0.26 0.27 0.26 0.26 0.27 0.28 0.30 0.31 0.31 0.32 0.32 0.31 0.30 0.29 0.28 0.30 0.31 0.31 0.31 0.30
1.15 1.15 1.11 1.09 1.07 1.07 1.07 1.07 1.07 1.09 1.09 1.09 1.09 1.08 1.08 1.07 1.04 1.02 0.98 0.96 0.96 0.94 0.92 0.90 0.87 0.83 0.82 0.82 0.79 0.73 0.66 0.63 0.61 0.58 0.55 0.55 0.55 0.59 0.60 0.60 0.64 0.59 0.54 0.50 0.47 0.46 0.44 0.44 0.43 0.41 0.37 0.30 0.23 0.20 0.22 0.27 0.31 0.33 0.33 0.34 0.34 0.36 0.36 0.35 0.31 0.27 0.26 0.25 0.27 0.29 0.31 0.33 0.34 0.33 0.33 0.33 0.33 0.33 0.32 0.32 0.33 0.33 0.30 0.26 0.25
1.12 1.12 1.09 1.10 1.09 1.09 1.10 1.08 1.06 1.06 1.07 1.07 1.06 1.06 1.06 1.06 1.04 1.02 0.97 0.95 0.94 0.93 0.91 0.90 0.89 0.85 0.84 0.85 0.82 0.72 0.65 0.64 0.60 0.56 0.54 0.53 0.55 0.59 0.61 0.64 0.62 0.55 0.49 0.46 0.46 0.43 0.42 0.43 0.42 0.41 0.37 0.32 0.24 0.21 0.24 0.28 0.30 0.32 0.34 0.34 0.34 0.33 0.31 0.30 0.27 0.27 0.27 0.27 0.30 0.33 0.34 0.34 0.34 0.33 0.33 0.34 0.34 0.34 0.31 0.29 0.29 0.30 0.27 0.25 0.25
1.11 1.08 1.07 1.10 1.12 1.13 1.13 1.10 1.07 1.06 1.06 1.05 1.05 1.06 1.07 1.06 1.03 1.00 0.96 0.94 0.92 0.92 0.92 0.90 0.90 0.89 0.88 0.87 0.81 0.69 0.64 0.61 0.57 0.55 0.52 0.52 0.55 0.58 0.62 0.63 0.58 0.49 0.46 0.43 0.42 0.41 0.41 0.41 0.41 0.41 0.37 0.33 0.24 0.21 0.24 0.28 0.31 0.33 0.35 0.34 0.32 0.31 0.29 0.27 0.23 0.25 0.29 0.30 0.33 0.34 0.35 0.34 0.34 0.33 0.34 0.35 0.34 0.34 0.31 0.27 0.29 0.30 0.26 0.27 0.26
1.07 1.06 1.08 1.10 1.11 1.11 1.11 1.09 1.07 1.07 1.06 1.06 1.06 1.05 1.04 1.02 1.02 1.02 0.99 0.97 0.94 0.93 0.93 0.92 0.91 0.91 0.90 0.87 0.79 0.68 0.63 0.58 0.54 0.52 0.48 0.52 0.55 0.59 0.62 0.61 0.55 0.47 0.42 0.39 0.40 0.42 0.41 0.40 0.39 0.39 0.38 0.35 0.27 0.22 0.24 0.29 0.32 0.36 0.35 0.33 0.29 0.27 0.26 0.23 0.21 0.22 0.26 0.28 0.31 0.34 0.34 0.33 0.34 0.34 0.35 0.34 0.34 0.34 0.33 0.31 0.32 0.29 0.26 0.27 0.28
1.11 1.12 1.12 1.12 1.12 1.11 1.11 1.09 1.08 1.06 1.04 1.05 1.06 1.05 1.04 1.02 1.02 1.01 1.00 0.98 0.95 0.94 0.94 0.92 0.89 0.89 0.88 0.83 0.78 0.70 0.62 0.55 0.52 0.48 0.47 0.52 0.55 0.58 0.60 0.57 0.53 0.46 0.43 0.38 0.37 0.40 0.39 0.39 0.36 0.36 0.35 0.33 0.26 0.23 0.24 0.28 0.31 0.35 0.34 0.30 0.27 0.24 0.24 0.21 0.22 0.25 0.28 0.30 0.31 0.33 0.31 0.30 0.32 0.32 0.32 0.32 0.33 0.33 0.32 0.33 0.32 0.29 0.28 0.28 0.29
1.13 1.12 1.12 1.13 1.12 1.12 1.13 1.11 1.07 1.06 1.05 1.03 1.03 1.01 1.00 0.97 0.98 0.98 0.96 0.94 0.93 0.91 0.92 0.90 0.89 0.87 0.86 0.83 0.77 0.73 0.65 0.55 0.50 0.48 0.47 0.52 0.56 0.58 0.58 0.52 0.53 0.49 0.44 0.40 0.36 0.39 0.36 0.35 0.31 0.32 0.33 0.31 0.25 0.24 0.24 0.26 0.29 0.32 0.33 0.29 0.25 0.23 0.23 0.22 0.24 0.28 0.29 0.30 0.31 0.30 0.28 0.29 0.30 0.31 0.31 0.31 0.32 0.32 0.32 0.32 0.30 0.30 0.30 0.30 0.29
1.15 1.14 1.12 1.13 1.15 1.14 1.12 1.09 1.07 1.05 1.04 1.03 0.98 0.94 0.96 0.96 0.95 0.95 0.94 0.91 0.89 0.89 0.90 0.88 0.87 0.82 0.80 0.77 0.73 0.70 0.71 0.63 0.53 0.50 0.48 0.51 0.56 0.56 0.52 0.51 0.54 0.50 0.48 0.44 0.38 0.39 0.38 0.35 0.32 0.28 0.28 0.27 0.24 0.24 0.25 0.25 0.26 0.29 0.31 0.31 0.27 0.24 0.24 0.25 0.27 0.28 0.29 0.30 0.27 0.27 0.27 0.28 0.28 0.29 0.30 0.31 0.32 0.32 0.31 0.30 0.30 0.30 0.31 0.33 0.32
1.15 1.13 1.12 1.12 1.14 1.10 1.06 1.04 1.03 1.00 0.99 0.99 0.98 0.95 0.95 0.94 0.93 0.92 0.89 0.86 0.85 0.84 0.84 0.79 0.78 0.76 0.74 0.70 0.72 0.69 0.73 0.69 0.64 0.55 0.49 0.50 0.52 0.50 0.49 0.50 0.53 0.51 0.48 0.48 0.46 0.43 0.43 0.41 0.38 0.35 0.29 0.25 0.24 0.25 0.25 0.25 0.26 0.27 0.28 0.28 0.26 0.25 0.25 0.27 0.29 0.29 0.29 0.28 0.27 0.27 0.26 0.28 0.28 0.29 0.30 0.30 0.32 0.32 0.32 0.31 0.31 0.32 0.32 0.33 0.34
1.09 1.07 1.08 1.09 1.10 1.06 1.02 1.00 0.99 0.99 0.99 0.97 0.95 0.92 0.91 0.91 0.90 0.88 0.86 0.82 0.81 0.80 0.78 0.78 0.77 0.73 0.70 0.65 0.69 0.71 0.73 0.71 0.67 0.63 0.55 0.48 0.46 0.44 0.46 0.50 0.52 0.51 0.50 0.49 0.48 0.45 0.48 0.45 0.41 0.39 0.36 0.33 0.27 0.25 0.25 0.26 0.26 0.27 0.28 0.28 0.26 0.25 0.25 0.29 0.30 0.30 0.29 0.27 0.26 0.27 0.26 0.28 0.29 0.30 0.30 0.32 0.33 0.33 0.32 0.32 0.32 0.33 0.33 0.33 0.33
1.04 1.03 1.03 1.02 1.03 1.00 1.00 0.98 0.97 0.96 0.96 0.94 0.90 0.87 0.85 0.85 0.83 0.83 0.81 0.80 0.80 0.79 0.77 0.75 0.70 0.67 0.65 0.66 0.67 0.72 0.74 0.74 0.70 0.65 0.60 0.50 0.42 0.39 0.43 0.50 0.52 0.51 0.49 0.50 0.48 0.45 0.47 0.47 0.43 0.41 0.39 0.36 0.32 0.27 0.26 0.26 0.27 0.28 0.27 0.26 0.27 0.28 0.28 0.30 0.31 0.31 0.26 0.26 0.28 0.27 0.27 0.28 0.30 0.31 0.33 0.34 0.34 0.33 0.32 0.33 0.33 0.34 0.34 0.34 0.34
0.96 0.96 0.96 0.95 0.96 0.97 0.96 0.96 0.95 0.92 0.91 0.89 0.87 0.84 0.83 0.83 0.81 0.79 0.76 0.76 0.78 0.78 0.76 0.70 0.67 0.67 0.67 0.71 0.71 0.74 0.76 0.76 0.74 0.68 0.62 0.53 0.42 0.38 0.41 0.48 0.51 0.51 0.50 0.49 0.50 0.46 0.45 0.44 0.42 0.41 0.39 0.35 0.31 0.27 0.26 0.27 0.29 0.32 0.31 0.30 0.32 0.32 0.32 0.32 0.33 0.29 0.26 0.27 0.29 0.27 0.26 0.30 0.31 0.32 0.34 0.34 0.33 0.30 0.31 0.31 0.31 0.31 0.32 0.32 0.31
0.92 0.91 0.91 0.91 0.91 0.92 0.91 0.91 0.90 0.89 0.88 0.89 0.89 0.87 0.85 0.82 0.82 0.82 0.81 0.80 0.80 0.77 0.74 0.70 0.69 0.70 0.71 0.74 0.77 0.78 0.77 0.77 0.75 0.72 0.64 0.57 0.47 0.41 0.40 0.44 0.49 0.50 0.50 0.50 0.50 0.48 0.43 0.41 0.40 0.39 0.38 0.35 0.31 0.28 0.28 0.30 0.31 0.32 0.32 0.33 0.35 0.34 0.34 0.34 0.34 0.32 0.29 0.30 0.31 0.28 0.28 0.31 0.33 0.33 0.32 0.32 0.31 0.31 0.33 0.32 0.31 0.31 0.33 0.32 0.31
0.89 0.89 0.90 0.91 0.91 0.92 0.92 0.92 0.91 0.90 0.89 0.90 0.88 0.86 0.85 0.87 0.88 0.86 0.85 0.82 0.80 0.78 0.76 0.73 0.71 0.72 0.74 0.77 0.78 0.77 0.76 0.76 0.76 0.73 0.67 0.57 0.49 0.43 0.40 0.41 0.46 0.49 0.50 0.50 0.50 0.49 0.47 0.44 0.42 0.39 0.38 0.35 0.32 0.29 0.28 0.28 0.29 0.32 0.37 0.39 0.39 0.38 0.38 0.37 0.37 0.35 0.33 0.33 0.32 0.29 0.28 0.31 0.30 0.31 0.32 0.32 0.31 0.32 0.33 0.33 0.32 0.32 0.33 0.33 0.30
0.90 0.90 0.90 0.90 0.91 0.93 0.92 0.92 0.92 0.91 0.90 0.90 0.89 0.88 0.87 0.89 0.89 0.88 0.88 0.86 0.84 0.83 0.81 0.79 0.78 0.77 0.76 0.76 0.75 0.74 0.75 0.77 0.80 0.80 0.69 0.57 0.47 0.42 0.40 0.40 0.44 0.46 0.48 0.49 0.50 0.49 0.48 0.42 0.39 0.37 0.35 0.32 0.29 0.28 0.29 0.29 0.32 0.39 0.40 0.41 0.40 0.40 0.39 0.37 0.35 0.33 0.33 0.33 0.30 0.27 0.28 0.30 0.30 0.31 0.32 0.31 0.31 0.31 0.33 0.33 0.34 0.32 0.33 0.33 0.30
0.89 0.88 0.90 0.90 0.91 0.91 0.90 0.91 0.91 0.91 0.90 0.88 0.87 0.87 0.92 0.93 0.92 0.88 0.85 0.91 0.93 0.89 0.88 0.83 0.79 0.76 0.75 0.75 0.75 0.71 0.68 0.68 0.74 0.75 0.63 0.51 0.46 0.43 0.41 0.40 0.40 0.41 0.44 0.47 0.49 0.46 0.44 0.41 0.37 0.33 0.29 0.27 0.27 0.28 0.32 0.36 0.38 0.38 0.40 0.41 0.43 0.41 0.35 0.34 0.34 0.33 0.33 0.31 0.30 0.28 0.29 0.31 0.30 0.31 0.32 0.31 0.31 0.32 0.33 0.33 0.32 0.33 0.32 0.31 0.30
0.89 0.88 0.89 0.88 0.90 0.90 0.90 0.90 0.91 0.90 0.90 0.89 0.87 0.85 0.88 0.92 0.94 0.93 0.91 0.87 0.86 0.87 0.85 0.82 0.78 0.75 0.74 0.72 0.73 0.72 0.69 0.69 0.72 0.70 0.56 0.47 0.41 0.38 0.37 0.38 0.38 0.39 0.40 0.42 0.45 0.44 0.42 0.39 0.36 0.35 0.34 0.33 0.34 0.35 0.38 0.39 0.39 0.40 0.38 0.37 0.36 0.33 0.35 0.36 0.35 0.34 0.33 0.32 0.32 0.32 0.32 0.32 0.32 0.33 0.32 0.31 0.30 0.31 0.32 0.33 0.33 0.32 0.32 0.31 0.30
0.88 0.88 0.88 0.90 0.91 0.91 0.91 0.92 0.92 0.90 0.90 0.90 0.87 0.87 0.87 0.88 0.91 0.92 0.90 0.88 0.86 0.82 0.79 0.76 0.74 0.74 0.76 0.73 0.69 0.66 0.66 0.67 0.66 0.60 0.49 0.43 0.40 0.38 0.38 0.39 0.39 0.39 0.41 0.42 0.40 0.41 0.42 0.40 0.40 0.40 0.39 0.38 0.39 0.41 0.41 0.42 0.41 0.38 0.36 0.35 0.35 0.37 0.36 0.36 0.37 0.36 0.35 0.35 0.35 0.34 0.33 0.34 0.34 0.34 0.33 0.32 0.31 0.31 0.31 0.31 0.31 0.31 0.31 0.31 0.31
0.88 0.88 0.88 0.90 0.91 0.91 0.91 0.91 0.91 0.91 0.90 0.88 0.88 0.89 0.88 0.86 0.82 0.82 0.86 0.88 0.88 0.85 0.83 0.80 0.75 0.73 0.73 0.71 0.67 0.64 0.63 0.63 0.62 0.57 0.50 0.44 0.41 0.38 0.39 0.39 0.39 0.41 0.42 0.41 0.40 0.39 0.39 0.40 0.41 0.40 0.39 0.39 0.40 0.40 0.40 0.38 0.37 0.35 0.35 0.36 0.37 0.40 0.41 0.40 0.40 0.38 0.38 0.37 0.37 0.36 0.35 0.36 0.35 0.33 0.32 0.32 0.32 0.31 0.32 0.31 0.31 0.31 0.31 0.30 0.30
0.91 0.91 0.89 0.91 0.92 0.93 0.93 0.93 0.92 0.93 0.94 0.92 0.91 0.91 0.88 0.86 0.85 0.84 0.81 0.79 0.79 0.80 0.79 0.77 0.75 0.73 0.72 0.70 0.66 0.63 0.61 0.60 0.58 0.55 0.50 0.46 0.43 0.41 0.40 0.40 0.40 0.40 0.40 0.40 0.41 0.38 0.36 0.37 0.37 0.36 0.35 0.36 0.37 0.37 0.37 0.37 0.37 0.37 0.38 0.40 0.42 0.42 0.41 0.40 0.39 0.39 0.39 0.40 0.39 0.37 0.36 0.35 0.33 0.31 0.31 0.32 0.33 0.33 0.32 0.32 0.31 0.31 0.30 0.30 0.29
0.93 0.93 0.94 0.96 0.96 0.96 0.96 0.96 0.95 0.93 0.93 0.91 0.90 0.89 0.87 0.85 0.85 0.83 0.82 0.82 0.80 0.78 0.77 0.77 0.78 0.75 0.71 0.67 0.63 0.61 0.60 0.59 0.58 0.55 0.51 0.47 0.44 0.43 0.42 0.39 0.37 0.38 0.40 0.42 0.40 0.35 0.33 0.32 0.32 0.31 0.31 0.33 0.36 0.37 0.37 0.38 0.39 0.40 0.40 0.40 0.41 0.41 0.41 0.40 0.40 0.41 0.40 0.39 0.38 0.36 0.34 0.33 0.32 0.33 0.33 0.33 0.33 0.33 0.33 0.33 0.32 0.32 0.30 0.30 0.30
0.96 0.94 0.96 0.97 0.96 0.95 0.94 0.93 0.93 0.92 0.90 0.89 0.89 0.88 0.87 0.84 0.83 0.85 0.86 0.86 0.83 0.79 0.77 0.77 0.76 0.74 0.72 0.70 0.68 0.65 0.62 0.60 0.58 0.55 0.51 0.48 0.45 0.43 0.39 0.38 0.38 0.39 0.40 0.40 0.38 0.35 0.32 0.30 0.28 0.28 0.29 0.33 0.35 0.36 0.37 0.38 0.39 0.40 0.40 0.39 0.38 0.38 0.38 0.40 0.40 0.40 0.40 0.39 0.37 0.36 0.35 0.33 0.34 0.35 0.36 0.36 0.35 0.34 0.33 0.32 0.31 0.30 0.30 0.31 0.31
0.99 0.97 0.96 0.97 0.97 0.95 0.92 0.91 0.90 0.91 0.89 0.88 0.88 0.87 0.88 0.87 0.85 0.82 0.80 0.80 0.80 0.80 0.78 0.77 0.76 0.75 0.74 0.72 0.69 0.66 0.64 0.61 0.58 0.55 0.51 0.48 0.45 0.41 0.39 0.38 0.38 0.40 0.40 0.38 0.36 0.34 0.31 0.29 0.28 0.27 0.29 0.32 0.33 0.35 0.36 0.37 0.38 0.39 0.39 0.39 0.39 0.39 0.39 0.40 0.39 0.38 0.37 0.37 0.37 0.36 0.35 0.33 0.35 0.36 0.36 0.35 0.32 0.31 0.30 0.30 0.30 0.31 0.32 0.32 0.32
1.01 1.00 0.98 0.97 0.96 0.94 0.91 0.89 0.88 0.88 0.88 0.88 0.87 0.85 0.85 0.85 0.83 0.81 0.78 0.75 0.74 0.75 0.76 0.78 0.78 0.77 0.74 0.72 0.75 0.71 0.64 0.60 0.56 0.52 0.50 0.47 0.45 0.42 0.41 0.40 0.40 0.40 0.38 0.37 0.35 0.33 0.31 0.29 0.28 0.26 0.28 0.31 0.33 0.34 0.36 0.38 0.39 0.38 0.38 0.38 0.38 0.38 0.40 0.41 0.40 0.39 0.38 0.36 0.35 0.35 0.34 0.33 0.35 0.36 0.36 0.34 0.32 0.31 0.31 0.31 0.31 0.31 0.31 0.31 0.32
0.98 0.96 0.95 0.94 0.92 0.89 0.88 0.87 0.86 0.85 0.85 0.86 0.85 0.84 0.83 0.83 0.81 0.80 0.80 0.78 0.75 0.75 0.75 0.74 0.72 0.70 0.70 0.71 0.69 0.69 0.65 0.60 0.56 0.51 0.48 0.45 0.43 0.40 0.39 0.38 0.39 0.39 0.37 0.34 0.32 0.31 0.28 0.26 0.25 0.25 0.25 0.28 0.32 0.34 0.36 0.37 0.38 0.38 0.38 0.37 0.38 0.39 0.39 0.39 0.38 0.38 0.38 0.37 0.36 0.35 0.34 0.35 0.35 0.35 0.35 0.34 0.33 0.32 0.32 0.31 0.30 0.30 0.29 0.31 0.33
0.90 0.89 0.91 0.92 0.90 0.88 0.86 0.86 0.86 0.85 0.83 0.82 0.81 0.80 0.80 0.81 0.81 0.80 0.80 0.77 0.76 0.76 0.75 0.72 0.71 0.72 0.76 0.77 0.75 0.71 0.65 0.61 0.57 0.54 0.50 0.47 0.43 0.40 0.37 0.36 0.37 0.36 0.34 0.32 0.30 0.28 0.27 0.26 0.25 0.25 0.25 0.27 0.30 0.32 0.34 0.36 0.37 0.38 0.39 0.40 0.39 0.39 0.39 0.38 0.37 0.37 0.37 0.37 0.36 0.34 0.34 0.34 0.35 0.36 0.36 0.35 0.35 0.34 0.33 0.32 0.32 0.32 0.33 0.34 0.35
0.86 0.87 0.88 0.88 0.87 0.85 0.83 0.82 0.82 0.83 0.84 0.84 0.85 0.83 0.82 0.83 0.83 0.81 0.77 0.75 0.74 0.74 0.74 0.75 0.75 0.74 0.75 0.75 0.74 0.69 0.62 0.60 0.58 0.56 0.54 0.51 0.47 0.42 0.39 0.37 0.36 0.34 0.33 0.31 0.29 0.27 0.27 0.27 0.27 0.29 0.30 0.31 0.32 0.34 0.36 0.38 0.39 0.40 0.41 0.41 0.41 0.41 0.40 0.39 0.39 0.39 0.39 0.38 0.36 0.35 0.35 0.35 0.36 0.36 0.35 0.35 0.36 0.35 0.34 0.34 0.34 0.34 0.35 0.34 0.34
0.82 0.82 0.81 0.83 0.84 0.83 0.81 0.80 0.81 0.83 0.83 0.83 0.82 0.81 0.81 0.81 0.80 0.77 0.76 0.76 0.75 0.74 0.73 0.73 0.72 0.70 0.70 0.70 0.70 0.70 0.67 0.64 0.62 0.60 0.58 0.55 0.51 0.47 0.43 0.40 0.38 0.36 0.33 0.30 0.28 0.27 0.28 0.29 0.30 0.31 0.31 0.33 0.34 0.35 0.36 0.37 0.38 0.38 0.39 0.41 0.41 0.41 0.41 0.40 0.40 0.40 0.39 0.37 0.37 0.37 0.36 0.36 0.37 0.37 0.37 0.37 0.36 0.35 0.35 0.35 0.35 0.34 0.34 0.35 0.35
0.82 0.80 0.78 0.77 0.76 0.77 0.77 0.79 0.80 0.81 0.81 0.81 0.80 0.80 0.80 0.80 0.80 0.78 0.77 0.76 0.76 0.74 0.72 0.69 0.68 0.67 0.68 0.70 0.72 0.71 0.68 0.67 0.64 0.61 0.59 0.56 0.52 0.50 0.48 0.47 0.45 0.42 0.38 0.35 0.32 0.31 0.30 0.30 0.31 0.32 0.33 0.34 0.35 0.35 0.36 0.37 0.40 0.41 0.42 0.42 0.42 0.42 0.41 0.41 0.40 0.40 0.40 0.39 0.37 0.37 0.36 0.37 0.37 0.37 0.36 0.36 0.36 0.36 0.35 0.35 0.35 0.35 0.35 0.34 0.33
0.81 0.79 0.78 0.76 0.77 0.77 0.79 0.80 0.79 0.78 0.78 0.79 0.80 0.80 0.80 0.79 0.78 0.75 0.73 0.73 0.74 0.74 0.72 0.70 0.70 0.69 0.68 0.69 0.69 0.68 0.68 0.67 0.65 0.62 0.58 0.55 0.53 0.50 0.50 0.49 0.47 0.45 0.44 0.42 0.41 0.39 0.36 0.32 0.31 0.31 0.32 0.34 0.34 0.34 0.35 0.38 0.41 0.41 0.41 0.42 0.42 0.42 0.42 0.42 0.42 0.41 0.40 0.39 0.38 0.37 0.36 0.36 0.36 0.37 0.37 0.37 0.36 0.36 0.36 0.36 0.36 0.35 0.35 0.35 0.34
0.79 0.77 0.75 0.75 0.75 0.74 0.74 0.76 0.76 0.75 0.74 0.75 0.75 0.76 0.77 0.78 0.78 0.78 0.76 0.74 0.73 0.73 0.74 0.74 0.73 0.70 0.69 0.70 0.70 0.68 0.67 0.65 0.63 0.60 0.57 0.55 0.54 0.52 0.51 0.49 0.47 0.45 0.45 0.45 0.45 0.44 0.42 0.40 0.37 0.34 0.33 0.33 0.32 0.30 0.32 0.40 0.43 0.43 0.44 0.45 0.45 0.45 0.46 0.45 0.45 0.44 0.43 0.41 0.40 0.40 0.40 0.40 0.39 0.39 0.39 0.38 0.38 0.37 0.37 0.36 0.36 0.35 0.35 0.34 0.34
0.79 0.76 0.73 0.73 0.72 0.73 0.73 0.74 0.75 0.75 0.74 0.74 0.74 0.74 0.76 0.77 0.78 0.78 0.78 0.77 0.77 0.77 0.77 0.76 0.74 0.71 0.69 0.69 0.68 0.68 0.66 0.64 0.60 0.57 0.56 0.54 0.53 0.54 0.55 0.52 0.48 0.46 0.47 0.47 0.48 0.48 0.47 0.45 0.42 0.39 0.38 0.36 0.34 0.33 0.35 0.39 0.42 0.44 0.47 0.49 0.49 0.49 0.49 0.49 0.49 0.47 0.45 0.44 0.44 0.46 0.45 0.43 0.42 0.42 0.41 0.40 0.39 0.39 0.39 0.39 0.38 0.38 0.37 0.37 0.37
0.77 0.75 0.73 0.73 0.72 0.72 0.72 0.73 0.72 0.72 0.72 0.72 0.72 0.72 0.72 0.73 0.74 0.75 0.76 0.76 0.76 0.76 0.75 0.75 0.73 0.71 0.70 0.68 0.68 0.67 0.66 0.64 0.60 0.56 0.56 0.57 0.59 0.58 0.59 0.56 0.54 0.53 0.53 0.52 0.51 0.50 0.49 0.47 0.46 0.44 0.41 0.38 0.35 0.34 0.35 0.36 0.39 0.43 0.46 0.47 0.49 0.49 0.50 0.50 0.50 0.49 0.47 0.47 0.47 0.47 0.47 0.46 0.45 0.44 0.42 0.41 0.41 0.41 0.41 0.40 0.40 0.39 0.39 0.38 0.38
0.78 0.75 0.73 0.73 0.72 0.71 0.71 0.71 0.70 0.71 0.72 0.72 0.72 0.73 0.73 0.73 0.73 0.72 0.72 0.71 0.70 0.70 0.71 0.71 0.71 0.70 0.68 0.67 0.66 0.66 0.65 0.64 0.62 0.59 0.55 0.54 0.58 0.62 0.60 0.57 0.56 0.55 0.55 0.54 0.54 0.53 0.53 0.52 0.50 0.47 0.43 0.38 0.35 0.33 0.34 0.36 0.41 0.44 0.47 0.50 0.51 0.51 0.51 0.50 0.50 0.50 0.50 0.51 0.52 0.52 0.50 0.49 0.47 0.44 0.43 0.43 0.42 0.42 0.41 0.41 0.42 0.42 0.42 0.41 0.41
0.77 0.74 0.72 0.72 0.72 0.71 0.71 0.70 0.68 0.68 0.68 0.68 0.69 0.68 0.68 0.68 0.68 0.67 0.67 0.67 0.66 0.66 0.66 0.66 0.66 0.66 0.64 0.63 0.62 0.63 0.63 0.63 0.62 0.60 0.58 0.58 0.60 0.59 0.58 0.57 0.56 0.56 0.56 0.56 0.56 0.55 0.55 0.54 0.51 0.47 0.42 0.39 0.37 0.38 0.41 0.43 0.46 0.48 0.51 0.51 0.51 0.50 0.50 0.50 0.50 0.50 0.49 0.49 0.48 0.47 0.47 0.46 0.44 0.43 0.43 0.43 0.43 0.43 0.44 0.44 0.44 0.44 0.43 0.42 0.42
0.74 0.72 0.70 0.70 0.70 0.70 0.68 0.67 0.65 0.64 0.63 0.63 0.63 0.63 0.64 0.65 0.65 0.65 0.66 0.65 0.64 0.63 0.63 0.62 0.61 0.60 0.58 0.57 0.56 0.58 0.60 0.61 0.60 0.58 0.57 0.58 0.58 0.56 0.56 0.56 0.57 0.57 0.57 0.57 0.57 0.57 0.56 0.54 0.50 0.46 0.42 0.41 0.44 0.46 0.48 0.49 0.51 0.51 0.51 0.50 0.50 0.50 0.50 0.50 0.50 0.49 0.48 0.47 0.47 0.46 0.46 0.45 0.45 0.44 0.44 0.44 0.44 0.44 0.44 0.45 0.45 0.44 0.44 0.43 0.42
0.71 0.69 0.69 0.68 0.67 0.66 0.64 0.62 0.62 0.62 0.61 0.60 0.60 0.60 0.61 0.62 0.63 0.63 0.63 0.63 0.61 0.61 0.62 0.62 0.61 0.60 0.59 0.58 0.58 0.59 0.60 0.60 0.60 0.58 0.57 0.56 0.56 0.56 0.56 0.56 0.56 0.56 0.56 0.55 0.54 0.52 0.50 0.48 0.46 0.44 0.44 0.47 0.50 0.52 0.54 0.53 0.52 0.52 0.51 0.51 0.51 0.51 0.51 0.50 0.50 0.49 0.48 0.48 0.48 0.47 0.46 0.45 0.44 0.44 0.44 0.46 0.47 0.46 0.46 0.46 0.46 0.45 0.44 0.42 0.40
Wind_Speed
18 17 17 16 16 15 15 14 14 14 13 13 12 12 12 12 11 11 11 10 9 9 9 9 10 9 9 8 8 8 8 8 8 8 7 7 7 7 7 7 8 8 9 9 9 10 11 11 12 13 13 14 14 15 16 16 17 17 17 16 16 16 17 17 18 19 20 20 22 23 24 26 28 29 30 32 33 34 35 36 36 35 35 36 36
17 17 16 16 15 15 14 14 13 13 12 12 12 12 12 12 11 11 11 10 10 10 9 10 10 9 9 9 8 8 8 8 8 8 8 8 8 8 8 8 8 9 9 10 10 10 11 12 12 13 13 14 14 15 15 16 16 16 16 16 16 16 16 17 18 19 20 21 22 23 24 26 28 29 30 31 33 34 35 35 35 35 35 35 36
17 16 16 16 15 15 14 14 13 12 12 12 12 12 12 12 12 12 11 10 10 9 9 10 10 9 9 9 9 9 9 9 9 9 9 8 8 9 9 9 9 10 10 10 10 11 11 12 13 13 13 14 14 14 15 16 16 15 15 15 16 16 16 17 18 19 20 21 22 23 24 26 27 29 30 31 32 34 34 34 35 35 34 35 36
17 16 16 16 15 15 14 14 13 13 12 12 12 12 12 12 12 12 11 10 9 9 9 10 9 9 9 9 9 9 9 9 9 9 9 9 9 9 9 10 10 10 10 10 11 11 12 12 13 13 13 14 14 14 15 15 15 15 15 15 15 16 16 17 18 19 20 21 22 23 24 26 27 29 30 31 32 33 34 34 34 34 34 35 36
17 17 16 16 16 15 15 14 14 13 13 13 13 13 13 13 12 12 11 10 9 9 10 10 10 10 9 9 9 9 9 9 9 9 9 10 10 10 10 10 11 11 11 11 11 11 12 13 13 14 14 14 14 14 15 15 15 15 15 15 15 16 16 17 18 19 20 21 22 23 24 25 27 29 30 31 32 33 33 34 34 33 33 34 35
17 17 17 17 16 15 15 15 14 14 13 14 14 14 14 13 12 11 11 10 10 10 10 10 10 10 10 9 9 10 10 10 10 10 10 10 10 11 11 11 11 11 11 11 11 12 12 13 14 14 14 14 14 14 14 14 14 14 15 15 16 16 17 17 18 19 20 21 21 23 24 25 27 28 30 31 32 33 34 34 34 33 33 33 34
17 17 17 17 17 16 15 15 15 14 14 14 15 15 15 14 13 12 11 11 10 11 11 11 11 10 10 10 10 10 10 10 10 11 11 11 11 12 12 12 12 12 12 12 12 12 13 13 14 14 13 13 14 14 14 14 14 14 15 15 16 16 17 17 18 19 20 20 21 23 24 25 27 28 30 31 32 33 34 35 35 34 33 33 33
17 17 17 17 17 16 16 16 15 15 15 15 15 15 15 14 13 12 12 11 11 11 12 11 11 11 11 11 11 11 11 11 11 12 12 12 13 13 13 13 13 13 13 13 13 13 14 14 14 14 13 13 14 14 14 14 14 14 15 15 16 16 17 17 18 19 19 20 21 22 24 25 26 28 29 30 31 32 34 35 35 35 34 33 33
18 18 18 17 17 17 17 16 16 16 16 15 15 15 15 14 14 13 12 12 12 12 12 12 12 11 11 11 12 12 12 12 12 13 13 13 14 14 14 14 14 14 14 14 14 14 14 14 14 13 13 13 13 13 13 14 14 14 14 15 15 16 17 17 18 19 20 20 21 22 24 25 26 28 29 30 31 33 34 34 35 35 34 34 33
18 19 18 18 18 17 17 17 16 16 16 16 16 16 15 15 14 14 13 13 13 13 13 13 13 12 12 12 12 12 13 13 13 13 14 14 15 15 15 15 15 15 14 14 15 15 14 14 13 13 12 13 13 13 13 14 14 14 14 15 15 16 17 17 18 18 20 20 21 22 24 25 26 27 29 30 31 32 33 34 35 35 35 34 33
19 19 19 19 18 17 17 17 17 17 17 17 17 16 16 15 15 15 14 14 14 14 14 14 13 13 13 13 13 13 14 14 14 14 14 15 15 16 16 16 16 15 15 14 14 14 13 13 13 13 13 13 13 13 13 14 14 14 14 15 15 16 17 17 18 18 19 20 21 22 23 25 26 27 28 30 31 32 33 34 34 35 35 35 34
19 19 19 18 18 17 17 17 18 18 18 18 18 17 16 16 16 15 15 15 15 15 15 14 14 14 14 14 14 14 15 14 14 14 15 15 15 16 15 15 15 15 14 14 14 14 13 13 13 13 13 13 13 13 13 14 14 14 14 15 16 16 17 17 18 18 19 20 21 22 23 24 25 26 28 29 31 32 33 33 34 35 35 35 34
19 19 19 19 18 18 18 18 18 19 19 19 18 17 17 17 16 16 16 15 15 16 15 15 15 15 15 15 15 15 15 15 15 15 15 15 15 15 15 15 14 14 14 14 14 14 13 13 14 14 14 13 13 13 13 14 14 14 15 15 16 17 17 17 18 18 19 20 21 22 23 24 25 26 28 29 31 32 33 33 34 34 35 35 35
19 19 20 19 18 18 18 18 18 19 19 19 18 18 17 17 16 16 16 16 16 16 16 16 16 16 16 16 16 16 16 16 16 16 16 16 16 16 16 15 14 14 14 14 14 14 14 14 14 14 13 13 13 13 13 14 15 15 15 16 17 17 17 17 18 19 19 20 21 22 23 24 25 26 28 29 30 31 32 33 33 34 34 34 34
19 20 20 20 19 19 18 18 18 18 19 19 19 19 18 18 17 16 16 17 17 17 17 16 16 16 16 16 17 17 17 17 17 17 16 16 16 16 16 15 15 14 14 13 14 14 14 14 14 14 13 13 13 13 14 14 15 15 15 16 17 17 17 17 18 19 19 20 21 22 23 24 26 26 28 29 30 31 32 32 33 33 33 33 33
19 20 20 20 20 19 18 17 18 18 19 19 20 19 19 19 18 17 17 17 17 17 17 17 17 17 17 17 18 17 18 18 18 17 17 16 17 17 16 15 15 14 14 14 14 14 14 14 14 14 14 13 13 13 13 14 14 15 16 16 16 17 16 17 18 19 20 20 21 22 24 25 26 27 28 29 29 30 31 31 31 32 32 32 33
19 19 20 20 20 19 18 18 18 18 19 20 20 20 20 20 19 18 18 18 18 18 18 18 18 18 18 18 18 18 18 18 18 18 17 17 17 17 17 16 15 15 15 15 15 15 15 14 14 14 14 13 13 13 13 14 14 15 16 16 16 16 16 18 18 19 20 21 22 23 24 25 26 27 28 28 29 30 30 30 31 31 32 32 32
19 20 20 20 19 19 18 18 18 19 19 20 20 20 20 20 19 19 19 19 19 19 19 19 19 18 19 19 19 19 19 19 19 19 18 18 18 18 17 16 15 15 15 16 16 15 15 15 14 15 14 14 13 14 13 14 15 16 16 16 16 17 17 18 19 19 20 21 21 23 24 25 26 27 27 28 28 29 29 30 30 31 31 31 32
20 20 20 19 19 18 18 18 19 19 19 20 20 20 20 20 20 20 20 20 20 20 20 19 19 19 20 20 20 20 20 20 20 20 19 19 18 18 17 16 15 15 16 16 16 16 16 16 15 15 15 14 14 14 14 14 15 16 16 16 17 17 18 18 19 19 20 20 21 23 24 24 25 25 26 27 27 28 29 29 29 30 30 31 31
20 20 20 19 19 19 19 19 19 19 19 20 20 20 20 20 20 20 20 20 20 20 20 20 20 20 20 21 21 21 20 20 20 20 20 19 19 19 18 17 16 16 17 17 17 17 17 17 17 16 15 15 15 15 15 15 15 16 17 17 17 17 18 19 19 19 20 20 21 22 23 24 24 24 25 26 27 28 28 28 29 29 30 30 30
20 20 20 20 20 19 19 19 19 19 19 19 20 20 20 20 21 20 20 20 20 20 20 20 20 20 20 21 21 21 21 21 21 21 20 20 19 19 19 17 16 17 17 18 18 18 18 18 18 17 16 16 16 16 16 16 16 16 17 17 18 18 18 19 19 19 19 20 21 21 22 23 23 24 24 25 26 27 28 28 28 29 29 29 30
19 20 20 20 20 20 19 19 19 19 19 19 19 20 20 20 21 20 20 20 20 20 20 20 20 20 21 21 21 21 21 21 21 21 21 21 20 20 20 19 17 16 17 18 18 19 19 19 18 17 17 17 17 16 17 17 17 17 18 18 18 18 18 19 19 19 20 20 21 21 21 22 23 23 24 25 25 26 27 27 28 28 28 28 29
19 20 20 20 20 19 18 18 18 19 19 19 20 20 20 20 20 20 20 20 20 21 21 21 21 21 21 22 21 21 21 22 21 21 21 21 22 22 21 20 19 18 18 18 19 19 20 20 19 18 17 18 18 18 18 18 18 18 19 19 19 19 19 19 19 19 20 20 21 21 21 22 23 23 24 24 25 26 27 27 27 27 28 28 29
18 19 19 20 20 19 18 19 19 19 19 19 20 20 20 20 21 21 21 21 21 21 22 22 22 22 22 22 22 21 21 22 22 21 21 22 23 23 22 22 20 20 19 19 19 20 20 20 20 19 19 19 19 19 19 19 19 20 20 20 20 19 19 19 19 20 20 21 20 21 21 22 22 23 24 24 24 25 26 26 27 27 27 28 28
17 17 18 19 19 18 18 19 19 19 20 20 20 21 21 21 21 21 22 22 22 22 23 23 23 23 23 22 22 21 21 22 22 22 22 23 24 24 24 23 22 21 21 20 20 20 19 19 19 19 20 20 20 20 20 20 21 21 21 21 20 19 19 19 19 20 21 20 20 20 21 21 22 23 23 23 24 25 25 26 26 27 27 27 28
17 17 18 18 19 19 19 19 19 20 20 21 21 21 21 21 21 22 22 23 23 23 23 24 24 23 23 23 22 22 21 21 22 23 23 23 24 24 25 25 24 23 22 22 21 20 20 19 19 20 21 21 21 21 21 21 21 21 21 21 21 20 19 19 19 20 20 20 20 20 20 21 21 22 23 23 23 24 25 25 26 26 26 27 27
17 17 18 18 19 19 19 19 20 20 20 21 21 21 21 21 22 22 23 23 23 23 24 24 24 23 23 23 22 22 22 22 22 23 23 23 23 24 25 25 26 25 24 23 23 22 21 21 21 21 22 22 22 22 22 22 22 22 22 21 21 21 20 20 20 20 20 20 20 20 20 21 21 22 22 23 23 24 25 25 25 26 26 26 26
18 17 18 19 19 20 20 20 20 21 21 21 22 22 22 22 23 23 23 23 23 23 23 23 23 23 23 23 22 22 22 22 22 23 23 23 24 25 25 26 26 27 26 26 25 24 23 23 23 24 24 23 23 23 23 23 23 23 22 22 22 22 21 21 21 21 20 20 20 20 20 20 21 22 22 23 24 24 24 24 25 26 26 25 26
19 19 19 19 20 20 20 20 21 21 21 22 22 22 22 23 23 23 23 23 24 23 23 23 23 23 23 23 23 22 22 22 21 22 23 24 25 25 25 26 26 27 28 27 26 26 25 25 25 25 25 24 24 23 23 24 23 23 24 23 22 22 22 21 21 21 21 20 19 20 20 20 21 22 22 23 24 24 24 24 25 25 25 25 25
19 19 20 20 20 21 21 21 21 21 22 22 22 22 22 22 23 23 23 23 23 23 23 23 23 22 22 22 23 23 23 22 22 22 24 25 25 25 25 26 26 27 27 27 27 27 26 26 26 26 25 24 24 23 23 24 24 24 25 24 23 23 22 21 21 22 21 20 20 20 20 20 21 22 22 23 24 24 24 24 24 25 25 25 25
20 20 20 21 21 21 21 21 22 22 23 23 23 22 22 22 22 22 23 23 23 23 23 23 22 22 22 22 22 22 22 22 22 22 23 24 24 24 25 25 26 26 26 26 27 27 27 27 27 26 25 24 24 24 24 24 24 24 25 24 24 24 23 23 23 23 22 21 22 21 21 21 21 22 22 23 23 24 24 24 24 24 24 24 25
20 20 20 21 21 22 22 22 22 22 23 23 23 23 23 22 22 22 22 22 23 23 23 23 22 22 22 22 22 22 21 21 22 23 23 23 23 23 24 24 24 25 25 25 26 27 27 27 26 26 25 25 26 26 26 25 25 24 24 24 25 25 24 24 24 23 22 22 22 22 22 22 22 21 22 23 23 23 23 23 23 24 24 24 25
21 21 21 21 21 22 22 22 23 23 23 23 23 23 23 23 22 21 22 22 22 22 22 22 22 21 21 21 21 21 21 21 22 23 23 23 23 23 23 23 24 24 24 25 26 27 27 27 27 27 26 26 26 26 26 26 26 25 25 25 25 25 24 24 24 23 22 22 22 22 22 22 21 21 22 23 23 23 23 23 23 23 23 24 25
21 21 21 21 21 21 22 22 23 24 24 24 24 23 23 23 22 22 22 21 21 21 22 22 22 22 21 21 21 20 21 21 22 22 23 23 23 22 23 23 23 24 25 25 26 26 27 28 28 28 27 26 26 26 26 26 25 25 25 25 25 25 24 24 24 24 23 23 22 21 21 21 21 22 22 22 22 22 22 23 23 23 23 24 25
21 21 21 21 21 21 22 22 23 24 24 24 24 24 23 23 22 22 22 22 22 22 22 22 22 22 22 22 21 21 21 22 22 22 22 23 23 23 23 23 24 24 25 25 25 25 26 27 28 28 27 26 25 25 25 25 24 24 24 24 25 25 25 25 25 25 24 23 22 21 21 22 22 22 22 22 23 23 23 23 23 23 24 25 25
21 21 21 21 21 21 22 22 23 23 23 24 24 24 23 22 22 21 21 21 22 23 23 23 23 24 24 23 23 23 22 22 22 22 23 23 24 23 24 24 24 25 25 25 25 25 26 27 27 27 26 25 25 25 25 25 25 24 25 25 25 25 25 25 25 25 24 23 23 22 23 23 23 23 23 23 23 23 23 23 23 23 24 25 25
21 21 21 21 21 21 21 21 22 22 22 23 23 23 23 23 22 22 21 21 22 22 22 23 24 24 24 24 23 22 22 22 22 23 23 24 24 24 24 25 25 25 25 25 25 25 26 26 27 27 26 26 25 25 25 25 25 25 25 25 25 25 26 26 26 26 25 24 24 24 24 24 24 24 24 23 23 23 24 24 23 23 24 25 26
22 21 21 20 20 20 20 20 20 21 21 22 22 23 23 23 23 23 22 22 22 22 22 22 23 23 24 23 24 24 23 23 23 24 24 24 24 25 25 25 25 25 25 25 25 26 26 27 27 27 27 26 26 26 25 25 26 26 26 26 26 26 26 26 25 25 25 25 25 25 25 24 24 24 23 23 23 24 24 24 24 24 25 26 26
20 20 20 20 20 20 20 20 20 21 21 22 22 23 24 24 24 23 22 22 21 22 22 23 23 23 24 24 24 25 25 24 24 25 25 25 25 25 25 25 25 26 25 25 26 26 27 27 27 27 27 27 27 27 26 26 26 26 26 26 26 26 25 25 25 25 25 25 25 25 25 24 24 24 23 24 24 24 24 24 25 26 26 26 26
20 19 20 20 20 20 21 21 21 21 21 22 22 23 23 24 24 24 24 23 23 23 24 24 24 24 24 24 24 25 26 26 26 26 26 26 26 26 25 25 25 25 25 26 26 27 27 27 27 27 27 27 27 27 26 26 26 26 26 26 26 25 25 24 24 25 25 25 25 25 25 25 24 24 24 24 25 25 25 26 26 26 26 26 26
19 19 20 21 21 21 21 22 22 22 22 23 23 23 24 24 25 24 24 24 25 25 25 24 24 25 25 24 25 26 26 26 26 26 26 26 26 26 26 26 26 25 26 26 26 27 27 27 27 27 27 27 27 26 26 26 26 26 26 26 26 25 25 24 24 24 25 25 25 25 25 25 25 25 25 25 25 25 26 26 26 26 26 27 28
19 19 20 21 21 22 22 22 23 23 23 23 24 24 24 24 24 24 24 25 25 25 25 24 25 25 25 25 25 26 27 26 26 26 26 27 27 27 27 26 26 26 26 26 26 27 27 27 27 27 26 26 26 26 26 26 26 26 26 26 26 26 25 25 25 25 25 25 25 25 25 25 26 25 25 25 26 26 27 27 27 27 27 28 29
19 19 20 21 22 22 23 23 23 23 23 23 23 23 23 24 24 25 25 25 26 26 25 25 25 25 25 25 25 26 27 27 26 26 27 27 28 28 28 27 27 27 27 27 27 27 27 27 28 27 27 26 26 26 26 26 26 26 26 26 27 27 27 26 26 25 25 25 25 25 25 26 26 25 26 26 27 27 28 28 28 28 28 29 29
20 20 21 22 22 22 23 23 23 22 22 22 22 22 23 23 23 24 24 25 25 25 25 25 25 25 25 25 25 25 26 26 26 27 28 28 28 28 28 28 28 28 27 27 27 28 28 28 28 28 28 27 27 27 27 27 26 26 27 27 28 28 27 27 26 25 25 25 26 26 26 26 26 26 26 27 28 28 28 28 28 29 29 30 30
20 20 21 21 21 21 21 21 21 21 21 21 21 21 21 21 22 22 23 23 24 24 24 25 25 25 25 25 25 25 25 26 27 28 28 28 28 28 28 28 28 28 28 28 28 28 28 28 27 28 28 27 28 28 28 27 27 27 27 27 27 27 27 27 26 26 25 25 26 26 26 27 27 27 27 27 28 28 28 28 29 29 30 31 31
19 20 20 20 20 20 20 20 20 20 20 20 20 20 20 21 21 22 22 23 23 24 24 25 25 25 25 25 25 25 26 27 27 28 28 27 27 27 27 27 27 28 28 28 28 28 28 28 27 27 27 27 27 27 27 27 27 27 28 28 28 28 27 27 27 27 27 26 27 27 28 27 27 27 27 28 28 29 29 29 29 30 31 31 32
19 18 19 19 19 19 20 20 20 20 20 20 19 19 19 20 20 21 22 23 23 23 23 24 25 25 25 26 26 26 27 27 27 27 27 27 26 26 27 27 27 27 27 27 27 28 28 28 28 28 28 27 27 27 27 27 28 28 29 29 28 28 27 27 27 27 27 27 27 27 27 27 27 27 28 29 29 30 30 30 30 31 31 32 32
19 18 18 19 19 19 19 19 19 19 19 19 19 19 20 20 20 21 22 22 23 23 24 24 25 25 26 26 27 27 27 27 27 27 27 27 27 27 27 27 27 26 26 27 27 28 28 28 27 27 27 27 27 27 27 28 28 28 28 28 27 27 27 27 27 26 26 27 26 26 26 26 27 28 29 30 30 31 31 31 31 32 32 32 33
18 18 17 18 18 18 19 19 19 19 19 19 19 20 20 21 21 21 21 22 22 23 24 24 24 24 25 25 26 26 26 27 27 28 28 28 27 27 27 27 27 27 26 27 27 27 27 27 27 27 27 26 26 27 27 28 28 28 27 27 26 26 26 27 27 27 27 27 27 27 27 28 29 29 30 30 31 31 31 31 31 32 32 33 33
18 17 17 17 17 18 18 18 18 19 19 19 19 19 20 20 20 20 21 21 21 22 22 23 23 24 24 24 25 25 26 26 27 27 27 27 28 28 28 28 28 27 27 27 27 27 27 27 26 26 26 26 26 26 26 27 27 27 26 26 26 26 26 26 27 27 27 27 27 28 28 29 29 30 30 30 30 30 31 31 31 32 33 33 33
18 17 17 17 18 18 18 18 18 18 18 18 18 18 19 19 19 19 20 20 21 22 22 23 23 24 24 24 24 24 24 25 25 26 27 27 28 28 28 27 27 26 26 26 26 27 27 26 26 25 25 25 25 25 25 25 25 25 25 25 25 25 26 26 26 27 27 27 27 28 28 29 29 29 29 29 29 30 30 31 32 32 33 33 33
Wind_Direction
225 227 229 228 228 230 233 235 238 241 242 239 233 229 226 220 218 215 207 203 209 218 225 226 223 225 230 234 238 241 243 243 243 247 250 255 260 265 271 276 281 286 292 298 302 307 310 312 314 317 320 322 323 325 327 327 328 330 331 331 332 333 333 334 333 332 334 336 337 338 339 341 343 343 344 345 346 347 348 348 348 348 347 347 347
224 226 226 225 225 227 229 232 235 236 235 229 222 218 217 214 212 209 204 206 213 219 224 223 223 227 231 235 238 240 242 244 246 249 252 255 260 265 270 274 279 285 291 296 300 304 308 311 313 316 318 320 322 322 324 325 325 327 329 330 331 332 333 334 334 333 334 336 337 337 339 341 342 343 344 344 345 346 347 348 348 348 348 348 347
222 223 223 222 223 225 227 231 232 229 224 217 213 213 211 209 208 206 206 211 216 219 221 221 223 228 231 236 239 241 244 245 247 250 252 256 260 265 269 273 278 284 289 294 298 301 306 310 312 314 316 319 320 320 322 325 325 325 327 329 330 331 332 333 333 333 333 334 336 337 339 341 342 343 344 344 345 346 346 347 348 348 348 348 348
220 222 221 220 222 224 226 228 226 221 217 213 210 210 207 204 203 204 208 213 216 219 221 222 224 229 234 238 239 242 244 245 248 252 255 259 262 265 270 274 279 283 287 291 295 299 304 308 310 313 314 317 318 319 322 325 325 326 327 329 330 331 331 333 332 332 332 332 334 337 338 340 341 343 344 344 345 345 346 346 347 347 347 347 348
220 222 220 219 221 223 224 225 221 217 215 211 208 207 205 202 202 206 211 214 216 220 222 223 227 232 236 239 241 243 244 247 251 254 257 261 264 268 271 274 278 282 285 289 293 298 303 307 309 311 312 313 316 318 322 325 326 327 328 329 330 330 331 332 332 332 332 332 333 336 338 340 341 343 344 344 344 345 345 346 346 345 345 346 347
219 221 220 219 220 221 222 222 219 216 213 208 206 206 204 203 204 209 213 215 218 222 223 227 232 235 238 241 243 245 247 250 253 255 259 262 266 269 271 274 278 281 284 287 292 298 302 305 307 308 309 311 315 318 322 324 326 328 329 329 330 330 331 331 331 331 332 332 333 336 338 340 341 343 344 344 344 345 345 345 346 345 345 345 346
219 220 220 218 218 219 220 220 217 214 211 207 206 206 205 205 208 212 216 218 221 224 226 230 234 237 241 244 246 248 250 252 255 257 260 263 266 269 271 274 277 279 282 284 289 294 298 301 304 305 308 311 316 319 321 323 326 327 328 329 330 330 331 331 332 332 333 333 334 336 338 340 341 342 344 344 345 345 345 345 345 345 345 344 345
219 221 220 217 217 219 220 218 216 213 210 207 207 206 207 209 211 215 219 222 226 228 230 233 237 240 244 246 249 251 252 254 257 259 262 264 267 269 271 273 276 278 280 282 286 290 293 297 301 303 307 312 316 319 320 322 325 327 328 329 329 330 330 331 332 333 334 334 334 336 338 339 340 342 343 344 345 346 346 345 344 345 345 344 344
220 220 219 216 217 220 219 218 216 212 209 208 207 208 209 212 215 219 223 227 231 233 234 237 240 242 245 248 251 253 255 259 261 262 264 266 268 271 272 274 276 277 279 281 284 288 291 294 297 300 306 312 316 318 320 322 325 326 328 329 330 330 331 331 332 333 334 334 335 336 337 338 340 342 343 344 345 345 346 345 345 345 345 344 344
219 218 216 215 217 220 219 218 214 210 209 209 209 210 213 216 220 223 227 231 234 236 238 240 242 243 245 249 252 256 260 263 264 264 265 267 270 272 273 275 276 277 278 281 284 287 288 290 293 298 305 310 314 317 320 322 323 324 326 328 330 331 331 332 332 333 334 335 335 336 337 337 340 341 342 344 345 345 345 345 345 346 346 345 345
217 216 215 216 217 219 219 216 212 210 211 212 213 214 216 220 224 228 231 235 238 240 240 242 244 246 248 252 255 260 264 266 266 266 266 268 270 272 273 274 275 276 277 279 282 284 284 286 291 297 302 307 311 314 316 318 319 321 322 324 327 329 331 331 332 333 334 334 335 336 336 337 339 341 342 343 344 345 345 346 346 346 346 345 345
215 215 215 215 216 217 218 216 213 212 213 214 216 218 220 223 228 232 235 239 242 242 242 244 246 249 252 256 259 264 266 265 265 267 269 270 271 272 273 274 273 273 275 277 280 281 282 285 291 297 301 303 305 308 311 313 315 316 317 320 322 324 327 329 330 331 333 333 334 335 336 337 339 341 342 343 344 344 345 346 347 347 346 346 345
214 214 214 215 216 218 219 218 216 215 215 216 218 220 223 227 232 235 238 242 243 243 244 246 249 252 255 259 262 266 266 264 265 267 269 271 272 272 272 272 273 274 275 277 279 279 280 284 290 295 298 299 302 306 309 311 311 312 314 317 319 320 322 324 326 328 330 332 333 334 335 337 338 340 341 342 342 343 344 345 346 346 346 346 346
214 213 214 215 218 220 220 220 218 217 217 219 220 223 226 230 235 238 241 244 244 244 246 249 252 255 258 261 265 267 266 264 265 267 270 272 273 273 271 270 273 276 275 276 277 277 279 283 288 293 295 298 303 306 309 310 311 312 314 317 318 319 319 321 322 323 326 329 331 332 335 337 337 338 340 341 342 342 343 344 345 345 345 346 346
214 215 216 217 219 221 220 220 219 219 220 221 223 226 229 233 237 241 244 246 246 247 249 251 254 257 260 263 265 266 266 265 266 267 269 271 273 272 270 268 271 273 272 271 273 275 279 283 288 292 294 298 303 305 307 309 311 313 314 315 316 317 317 318 319 321 324 327 328 331 335 336 336 336 338 340 341 342 342 343 344 344 344 346 347
213 215 217 218 219 219 219 220 221 222 222 223 225 229 233 236 240 244 245 247 248 250 252 254 256 258 261 264 265 266 267 267 266 266 268 269 271 271 268 267 269 269 266 268 271 273 277 282 287 290 292 296 300 302 305 308 309 312 314 314 316 316 316 317 318 320 323 325 327 330 333 333 332 333 335 338 340 341 342 343 344 344 345 346 347
214 216 218 218 218 219 221 222 224 225 225 226 229 232 236 239 243 245 246 248 250 253 255 256 258 259 261 263 265 266 268 269 267 265 265 267 269 269 268 266 265 265 265 267 271 273 276 280 284 286 289 292 295 298 302 306 308 311 313 314 315 316 316 318 320 321 322 323 326 329 330 329 330 333 334 337 339 341 343 344 344 344 345 346 347
216 218 219 218 219 222 224 226 227 228 229 230 232 234 239 242 244 245 247 249 252 254 256 257 259 260 262 264 265 267 269 268 266 263 263 265 266 266 266 265 264 265 266 268 271 274 275 277 281 285 286 288 291 295 300 304 307 310 312 312 313 314 317 319 320 321 322 324 327 329 329 329 332 334 335 337 339 341 343 343 343 345 346 346 347
218 218 218 219 222 225 227 229 230 231 232 233 234 237 241 244 244 246 249 251 253 255 256 257 258 260 262 265 267 268 269 267 264 262 262 262 263 263 264 265 264 265 267 269 271 274 275 276 278 282 285 287 289 292 296 301 305 309 310 311 311 313 317 319 319 320 322 325 328 329 330 332 334 336 338 340 341 342 342 343 343 345 346 346 347
218 218 219 221 224 226 229 230 232 233 235 235 237 240 243 244 244 246 250 252 253 254 255 257 259 261 264 266 268 268 268 265 263 262 261 260 260 260 261 263 264 265 267 269 270 272 275 275 275 276 281 285 287 289 293 297 301 306 309 310 311 313 315 317 318 318 320 324 326 328 330 333 335 337 339 341 341 342 342 343 344 345 345 346 347
219 219 221 222 225 227 230 232 234 235 236 237 239 241 243 244 245 246 249 252 253 254 256 258 260 261 264 267 269 268 267 265 262 261 260 258 257 256 257 261 264 266 267 269 270 271 274 275 274 273 276 280 283 287 290 294 298 302 306 308 310 311 314 316 316 317 320 322 324 327 330 332 334 337 339 340 341 342 343 344 344 345 345 346 347
220 221 223 224 226 228 231 233 234 236 237 238 239 241 243 244 245 247 249 251 253 253 256 258 260 262 265 268 269 269 267 265 262 261 259 256 254 253 255 258 262 266 268 270 271 271 273 275 275 272 273 276 280 283 287 291 295 298 302 305 307 309 311 313 314 317 319 320 323 326 328 330 333 336 338 339 341 342 344 345 345 345 346 346 347
221 223 224 225 226 229 230 231 233 236 237 238 239 240 242 245 246 247 249 251 252 254 255 258 260 263 265 268 269 269 267 265 262 260 258 255 252 252 253 256 261 265 267 271 274 273 272 273 274 273 273 275 278 280 284 288 292 295 298 301 304 307 309 310 312 315 316 318 321 323 325 328 331 334 336 338 341 342 343 345 346 346 346 346 348
221 224 224 225 227 229 229 231 234 238 239 239 240 242 244 246 247 248 249 252 254 255 256 258 261 263 265 267 268 268 267 264 261 260 258 255 252 251 252 255 260 263 266 270 273 275 274 271 270 270 272 274 277 279 281 285 289 292 295 297 300 304 306 308 310 312 313 315 318 320 323 327 330 332 334 337 339 341 342 343 345 345 346 346 348
222 223 224 226 227 228 231 236 239 242 244 245 246 247 248 249 249 250 252 254 256 257 258 260 262 263 264 266 267 267 266 263 261 260 258 255 253 251 252 254 258 261 264 267 270 274 275 272 269 269 271 274 276 278 280 283 286 288 291 294 297 301 303 305 308 309 311 313 315 316 320 324 327 330 332 335 338 340 341 342 343 345 346 347 348
222 224 225 226 227 230 235 241 243 246 249 251 253 252 252 251 252 254 255 256 257 259 261 262 263 263 264 265 266 266 265 263 261 260 259 257 254 253 252 254 256 259 261 264 266 271 273 272 270 270 272 274 276 278 280 283 284 286 288 291 294 297 300 302 304 306 309 311 312 314 318 321 324 327 330 332 336 338 338 340 342 343 344 346 347
224 227 228 230 232 236 241 244 246 250 253 255 256 256 255 255 256 256 256 257 258 261 262 263 263 263 263 264 264 265 265 264 262 260 259 257 256 255 254 255 257 259 260 262 264 267 269 269 269 269 271 274 276 277 280 282 284 286 287 289 291 293 295 298 299 302 306 308 309 311 315 318 321 325 328 330 333 334 336 337 340 341 342 344 345
228 232 233 236 240 243 246 249 251 254 256 257 258 257 257 257 259 258 258 258 260 261 262 262 262 263 263 263 263 265 265 265 262 259 258 257 258 258 257 256 257 259 260 261 263 265 267 268 268 268 270 272 274 276 279 281 283 284 286 288 290 290 291 294 295 298 302 304 305 309 312 315 318 321 324 327 330 331 332 335 337 339 340 342 343
234 237 240 243 246 249 251 253 255 257 258 258 258 259 258 259 259 260 260 261 262 262 262 263 263 263 263 262 262 263 264 264 262 260 259 259 259 259 258 259 259 260 260 259 261 263 265 266 268 269 270 271 273 275 277 278 280 282 285 286 286 286 288 291 293 296 299 299 302 307 309 311 314 318 321 324 327 329 330 332 335 337 338 340 342
239 243 246 248 250 252 254 256 258 259 259 258 258 260 261 261 261 262 262 263 263 263 263 264 265 264 264 265 264 264 264 264 262 261 261 261 259 259 259 260 261 261 261 260 260 261 263 265 267 269 270 270 271 273 276 277 279 281 282 283 282 284 288 289 290 293 295 295 298 303 305 307 312 315 317 321 324 327 328 330 332 335 336 338 340
244 247 250 251 251 253 255 256 258 259 259 258 258 259 260 261 263 264 264 264 265 264 262 264 265 264 263 265 266 266 264 262 261 261 263 262 261 260 260 260 261 261 261 260 260 261 263 265 266 267 268 269 271 274 277 278 280 281 282 283 283 284 286 287 288 291 292 293 296 298 299 302 307 311 314 318 321 324 325 327 330 333 334 336 338
247 249 252 252 251 253 255 256 257 258 258 259 259 258 258 259 262 265 267 267 266 264 261 262 264 263 263 264 265 265 263 261 261 263 264 264 263 262 260 260 261 261 261 261 260 261 262 264 266 266 267 270 273 276 277 277 279 280 282 283 283 283 284 286 287 289 290 292 295 296 296 299 303 307 312 315 318 320 322 324 327 330 332 334 336
249 250 252 252 252 254 255 256 257 259 259 258 258 258 259 260 261 264 267 268 266 263 260 260 262 263 264 264 264 264 264 263 263 265 265 265 264 263 261 261 261 261 262 264 264 262 262 264 265 266 268 270 273 276 277 277 278 279 280 282 283 283 285 286 287 287 288 291 294 294 295 298 301 305 309 311 313 316 318 320 323 326 328 331 334
251 252 253 253 253 255 257 257 258 258 258 258 258 258 259 261 261 261 264 265 264 261 261 261 262 263 264 264 264 265 264 264 265 266 266 266 265 263 263 263 263 263 264 266 266 264 263 264 265 266 268 270 272 275 277 277 278 278 279 281 282 284 285 285 286 286 288 290 292 293 295 296 299 303 305 307 309 312 315 317 319 322 325 328 330
253 254 255 255 256 258 259 259 259 258 257 257 257 258 259 260 260 261 263 264 262 261 261 262 262 262 262 263 264 264 264 264 265 266 266 266 265 264 264 264 264 265 266 267 267 265 265 265 266 266 268 269 271 273 274 275 277 278 278 280 282 283 284 285 285 286 287 289 290 291 293 295 297 299 300 302 305 308 311 314 316 318 321 324 327
254 256 255 255 257 259 260 259 259 258 257 257 257 257 258 259 261 263 265 265 263 262 263 263 263 263 263 263 263 263 264 265 266 266 266 266 265 265 266 265 265 266 267 267 266 266 266 267 267 267 268 269 270 271 272 273 275 277 278 279 282 282 282 282 284 285 287 288 288 289 292 293 294 295 297 300 304 307 309 311 313 315 318 321 323
255 256 254 253 254 256 258 259 258 257 257 257 256 255 257 259 260 262 264 264 263 264 265 265 265 264 263 262 262 263 265 267 268 268 268 267 266 267 267 267 267 267 267 267 266 266 267 267 267 267 268 268 270 271 272 273 275 276 277 280 282 282 281 281 282 283 284 285 287 289 290 291 292 294 296 299 302 306 307 308 310 312 315 318 320
256 255 252 249 250 254 257 258 257 256 257 257 257 256 258 259 260 262 264 265 264 263 265 267 265 262 260 260 261 264 266 268 269 269 269 268 267 268 268 269 269 268 268 267 267 267 268 268 268 267 267 268 270 271 273 273 274 275 277 279 282 283 282 282 281 281 281 283 285 287 288 288 290 293 296 298 301 303 304 306 308 310 313 315 317
254 252 250 249 251 255 258 259 258 257 258 258 258 258 259 259 260 262 264 266 264 263 264 266 265 263 261 262 264 265 266 266 267 268 268 267 267 267 268 269 269 268 267 268 268 269 269 269 268 268 268 268 270 272 273 273 274 276 278 280 282 283 282 282 281 281 281 282 284 285 286 287 289 291 294 296 298 300 301 303 306 308 310 312 314
252 251 251 252 255 258 260 261 261 260 260 260 260 260 260 260 262 263 264 264 265 265 265 267 266 264 262 263 265 266 266 266 267 267 267 266 265 266 266 267 268 267 267 267 268 269 269 269 268 268 268 268 270 271 272 273 274 276 278 279 280 281 282 282 282 282 283 283 283 284 284 286 288 289 292 294 296 297 299 301 303 305 306 309 311
253 254 255 256 258 260 262 262 263 263 263 263 262 262 261 261 262 262 263 263 264 265 266 267 268 267 265 264 266 267 267 267 268 268 267 266 266 266 266 266 266 267 267 267 268 269 269 268 268 268 269 269 270 271 272 273 274 275 277 278 279 279 280 282 283 283 283 283 283 283 284 286 287 288 290 292 294 296 298 299 300 302 304 306 308
254 256 258 259 261 262 262 263 263 264 264 264 263 262 262 262 260 260 262 263 264 266 267 267 268 270 268 265 265 266 268 269 269 268 268 268 267 267 266 266 265 266 267 268 269 269 269 268 268 268 269 270 270 270 271 272 274 275 277 277 277 277 279 281 282 283 283 283 282 282 284 285 286 287 289 292 294 296 297 297 298 300 302 304 307
254 257 260 262 263 263 263 263 263 263 263 263 262 262 262 262 261 260 261 263 264 266 268 267 268 270 269 267 266 267 268 269 269 268 269 269 269 268 267 266 266 266 267 268 269 269 269 269 268 268 268 269 269 269 270 272 273 275 276 276 277 277 278 280 282 283 283 282 282 282 283 285 286 287 289 291 294 296 296 296 297 299 301 303 305
257 259 262 263 263 263 263 262 262 262 262 262 262 262 262 262 262 261 262 263 264 266 267 267 268 269 269 268 269 269 269 269 270 270 271 271 270 268 267 267 267 267 268 268 268 268 269 269 268 268 268 268 268 268 270 272 273 274 275 276 277 279 279 280 282 283 283 282 282 283 284 284 285 286 288 290 293 295 296 296 297 298 300 302 304
260 261 262 263 262 262 262 261 262 262 263 264 264 264 264 264 263 263 263 264 265 266 266 266 267 268 269 269 269 269 269 270 272 272 272 271 270 268 268 268 268 268 268 269 268 269 269 270 269 269 268 268 268 268 270 271 271 272 274 276 278 279 280 280 280 281 282 282 282 282 283 283 283 285 288 290 293 295 296 296 297 299 300 302 303
261 263 262 262 261 261 262 262 262 263 264 264 264 265 265 265 264 264 264 265 266 267 266 266 267 269 270 269 269 270 271 272 272 272 271 270 270 269 269 269 268 268 268 268 269 269 270 270 269 269 269 268 268 268 268 269 269 271 273 276 278 279 279 279 278 279 281 282 282 282 282 281 282 285 288 290 293 295 296 297 298 299 301 302 303
260 263 263 262 262 262 263 263 263 263 263 263 264 264 265 266 266 266 266 266 268 269 269 269 270 271 272 271 271 272 272 272 273 273 271 270 271 271 270 269 268 268 268 268 268 269 269 269 269 269 269 268 267 267 267 269 270 272 275 277 279 279 279 279 278 279 281 282 283 283 282 281 282 284 287 290 293 294 295 296 298 299 301 302 303
259 261 264 264 263 263 263 263 263 264 264 263 264 265 266 267 267 267 267 267 269 270 271 272 272 273 274 273 273 273 273 272 273 273 272 271 272 271 270 269 269 269 269 269 269 269 270 270 269 269 268 267 266 267 268 269 271 273 275 277 278 278 279 279 279 280 282 283 284 284 284 283 284 285 287 290 292 293 295 296 298 299 300 302 303
258 259 262 264 263 263 263 264 264 265 266 266 265 266 267 267 268 267 267 268 269 270 271 272 272 273 274 274 274 274 273 273 274 274 274 272 271 270 269 269 270 270 270 269 269 269 269 270 269 268 267 266 266 267 268 270 272 273 275 277 277 278 279 279 279 280 281 282 283 284 284 284 285 286 288 290 292 293 295 296 297 299 300 302 303
259 260 263 263 263 263 264 264 265 267 268 268 267 267 268 269 270 269 268 269 270 271 271 273 274 275 276 276 275 275 275 276 276 275 274 272 271 270 270 270 270 270 270 269 269 269 269 269 269 267 266 266 266 267 269 271 273 274 276 277 278 280 280 280 281 281 282 282 283 284 285 286 287 289 290 291 292 294 295 296 298 299 301 302 303
261 263 264 263 263 263 263 265 267 269 270 269 269 269 269 270 271 271 270 270 272 274 274 275 276 277 277 278 277 278 278 278 277 276 275 274 273 273 272 271 270 270 270 270 269 269 268 268 267 266 264 264 266 268 270 272 274 275 277 278 280 281 281 282 282 282 282 283 284 286 287 288 289 289 291 292 294 295 296 297 298 300 301 301 302